SCP
-0 -0 -0 -0 -0 -0 -0 -0 -0 0 0 0 0 0 0 0 0 0 0 0 0 0 -0 -0 -0 -0 -0 -0 -0 -0 -0 -0 -0 -0 -0 -0 -0 -0 -0 -0 -0 0 -0
0 0 -0 -0 -0 -0 -0 -0 -0 0 0 0 0 0 0 0 0 0 0 0 0 0 0 -0 -0 -0 -0 -0 -0 -0 -0 -0 -0 -0 -0 -0 -0 -0 -0 -0 -0 -0 -0
-0 0 -0 -0 -0 -0 -0 -0 -0 -0 -0 0 0 0 0 0 0 0 0 0 0 -0 0 -0 -0 -0 -0 -0 -0 -0 -0 -0 -0 -0 -0 -0 -0 -0 -0 -0 -0 -0 -0
0 0 0 -0 -0 -0 -0 -0 -0 0 0 0 0 0 0 0 0 0 0 0 0 -0 0 -0 -0 -0 -0 -0 -0 -0 -0 -0 -0 -0 -0 -0 -0 -0 -0 -0 -0 -0 -0
0 0 0 -0 -0 -0 0 0 0 0 0 0 0 0 0 0 0 0 0 0 0 0 0 0 -0 -0 -0 -0 -0 -0 -0 -0 -0 -0 0 0 -0 -0 -0 -0 -0 -0 -0
0 0 0 -0 -0 0 0 0 0 0 0 0 0 0 0 0 0 0 0 0 0 0 0 0 0 0 0 0 -0 -0 -0 -0 -0 0 0 0 0 -0 -0 -0 -0 -0 -0
0 0 0 -0 -0 0 0 0 0 0 0 0 0 0 0 0 0 0 0 0 0 0 0 0 0 0 0 0 0 0 -0 -0 0 0 0 0 -0 -0 -0 -0 -0 -0 -0
0 0 0 0 0 0 0 0 0 0 0 0 0 0 0 0 0 0 0 0 0 0 0 0 0 0 0 0 0 0 0 0 0 0 0 0 -0 -0 -0 -0 -0 -0 -0
0 0 0 0 0 0 0 0 0 0 0 0 0 0 0 0 1 1 0 0 0 0 0 0 0 0 0 0 0 0 0 0 0 0 0 0 -0 -0 -0 -0 -0 -0 -0
0 0 0 0 0 0 0 0 0 0 0 0 0 0 0 1 1 1 1 0 0 0 0 0 0 0 0 0 0 0 0 0 0 0 0 0 -0 -0 -0 -0 -0 -0 -0
0 0 0 0 0 0 0 0 0 0 1 1 1 1 1 1 1 1 1 1 0 0 0 0 0 0 0 0 0 0 0 0 0 0 0 0 -0 -0 -0 -0 -0 -0 -0
0 0 0 0 0 0 1 1 1 1 1 1 1 0 0 0 1 1 1 1 1 0 0 0 0 0 0 0 0 0 0 0 0 0 0 0 0 0 -0 -0 -0 -0 -0
0 0 0 0 1 1 1 0 0 0 0 0 0 0 0 0 0 0 0 0 0 1 0 0 0 0 0 0 0 0 0 0 0 0 0 0 0 0 0 -0 -0 -0 -0
0 0 0 0 0 0 0 0 0 0 0 0 0 0 0 0 0 0 0 0 0 0 0 0 0 0 0 0 0 0 0 0 0 0 0 0 0 0 0 0 0 -0 -0
0 0 0 0 0 0 0 0 0 0 0 0 0 0 0 0 0 0 0 0 0 0 0 0 0 0 0 0 0 0 0 0 0 0 0 0 0 0 0 0 0 -0 -0
0 0 0 0 0 0 0 0 0 0 0 0 0 0 0 0 0 0 0 0 0 0 0 0 0 0 0 0 0 0 0 0 0 0 0 0 0 0 0 0 0 0 0
0 0 0 0 0 0 0 0 0 0 0 0 0 0 0 0 0 0 0 0 0 0 0 0 0 0 0 0 0 0 0 0 0 0 0 0 0 0 0 0 0 0 0
0 0 0 0 0 0 0 0 0 0 0 0 0 0 0 0 0 0 0 0 0 0 0 0 0 0 0 0 0 0 0 0 0 0 0 0 0 0 0 0 0 0 0
0 0 0 0 0 0 0 0 0 0 0 0 0 1 0 0 0 0 0 0 0 0 0 0 0 0 0 0 0 0 0 0 0 0 0 0 0 0 0 0 0 0 0
0 0 0 0 0 0 0 0 0 0 0 0 1 1 0 0 0 0 0 0 0 0 0 0 0 0 0 0 0 0 0 0 0 0 0 0 0 0 0 0 0 0 0
0 0 0 0 0 0 0 0 0 0 0 0 0 0 1 0 0 0 0 0 0 0 0 0 0 0 0 0 0 0 0 0 0 0 0 0 0 0 0 0 0 0 0
0 0 0 0 0 0 0 0 0 0 0 0 0 0 0 0 0 0 0 0 0 0 0 0 0 0 0 0 0 0 0 0 0 0 0 0 0 0 0 0 0 0 0
0 0 0 0 0 0 0 0 0 0 0 0 0 0 0 0 0 0 0 0 0 0 0 0 0 0 0 0 0 0 0 0 0 0 0 0 0 0 0 0 0 0 0
0 0 0 0 0 0 0 0 0 0 0 -0 0 0 -0 -0 0 0 0 0 0 0 0 0 0 0 0 0 0 0 0 0 0 0 0 0 0 0 0 0 0 0 0
0 0 0 0 0 0 0 0 0 0 -0 -0 0 0 0 0 0 0 0 0 0 0 0 0 0 0 0 0 0 0 0 0 0 0 0 0 0 0 0 0 0 0 0
0 0 0 0 0 0 0 0 0 0 0 0 0 0 0 0 0 0 0 0 0 0 0 0 0 0 0 0 0 0 0 0 0 0 0 0 0 0 0 0 0 0 0
Wind_Speed_500mb
23 26 27 25 27 23 20 18 12 13 13 14 18 21 17 14 12 14 15 16 18 24 24 28 29 29 29 30 31 31 32 35 38 40 42 42 41 41 45 47 46 45 49
18 25 26 27 27 26 21 19 14 11 10 14 14 16 15 14 14 15 16 18 20 24 25 23 23 27 26 25 28 30 30 32 35 36 38 40 40 42 43 42 42 48 50
18 23 26 30 29 28 21 20 13 11 8 12 15 16 15 15 15 16 16 18 21 23 22 23 23 22 19 22 26 28 31 31 32 34 37 39 38 39 42 43 46 49 53
15 19 27 29 29 26 21 20 13 10 8 11 12 15 15 18 14 15 17 20 23 22 23 23 21 17 17 25 26 30 31 30 30 32 34 36 37 38 42 45 45 50 52
17 16 26 27 27 24 21 18 14 11 10 14 11 16 15 18 15 15 18 21 22 20 20 19 19 17 17 24 22 26 25 28 33 36 38 37 37 35 40 48 51 50 51
17 15 25 24 24 23 23 22 15 12 12 15 14 13 17 14 16 19 21 21 22 18 17 16 17 17 18 20 19 22 23 24 27 35 42 41 37 34 36 42 50 50 50
18 17 22 21 20 22 23 22 15 14 15 15 17 20 17 16 18 20 20 21 19 16 16 15 15 19 19 17 17 16 15 15 20 29 31 36 36 37 33 37 43 48 49
18 18 18 19 21 21 23 21 18 17 16 17 17 20 21 17 20 21 21 18 17 15 17 16 19 19 17 18 18 14 12 11 19 27 30 32 30 28 26 27 34 40 46
18 16 18 20 19 22 23 21 20 21 20 18 18 21 23 20 21 21 20 20 17 20 22 23 23 22 17 22 17 13 11 15 18 29 29 26 22 25 24 25 28 33 39
16 18 20 19 19 21 23 22 22 22 21 20 19 19 26 25 24 23 23 21 20 24 26 27 27 24 25 19 14 10 9 13 22 29 27 23 22 23 27 36 34 38 42
18 20 21 18 18 19 21 21 23 23 24 26 24 25 29 32 29 29 25 24 24 27 27 29 31 32 26 18 14 11 7 15 25 34 29 27 28 32 33 34 34 39 43
25 26 25 20 22 22 20 23 26 27 29 30 33 31 29 35 35 32 29 28 28 30 32 34 37 34 24 15 14 9 7 18 25 35 33 28 32 33 35 35 38 39 41
18 26 26 24 22 22 21 23 27 29 31 33 35 36 35 37 38 36 36 36 35 36 38 40 43 32 23 14 9 9 12 26 30 35 33 30 33 33 34 38 39 42 43
23 23 25 24 20 19 21 26 27 30 32 35 36 39 42 42 42 44 41 38 37 39 43 44 39 33 27 18 13 11 14 25 33 34 33 33 34 35 36 38 40 42 43
27 27 26 25 22 21 21 24 28 31 33 36 39 41 42 46 48 44 42 39 38 39 42 45 44 37 31 23 17 12 13 24 36 36 35 34 35 36 35 36 39 39 41
30 32 29 25 23 22 22 24 24 25 26 32 38 42 43 49 54 51 48 38 39 38 44 50 49 42 35 29 25 19 14 25 37 40 35 34 33 34 34 35 35 37 38
38 38 36 30 29 30 30 32 30 28 28 31 34 41 45 51 56 55 51 39 36 32 46 54 51 49 42 37 30 23 17 32 38 41 39 34 31 30 31 34 32 33 33
45 44 41 38 37 37 39 41 38 38 36 35 36 35 44 56 58 62 57 57 53 56 55 66 61 57 48 44 37 28 26 30 38 38 39 36 33 31 28 30 30 29 29
46 44 43 41 40 39 42 46 48 49 48 41 38 35 40 53 62 67 51 54 43 43 42 59 66 64 61 54 41 34 29 29 38 38 36 35 31 32 29 26 27 27 26
44 43 43 41 38 41 45 51 54 53 49 44 38 38 40 44 64 67 56 50 46 50 46 47 58 51 61 58 49 39 35 33 33 35 35 31 27 25 24 23 25 23 21
42 41 41 39 39 46 50 50 53 56 49 43 40 36 39 45 52 60 53 44 46 41 51 55 58 49 68 63 60 44 36 33 32 30 29 26 25 22 19 18 19 19 18
33 32 34 35 38 37 34 36 43 39 39 35 35 32 38 42 40 41 52 34 41 42 46 45 41 52 71 68 57 53 34 29 30 30 29 28 25 22 20 18 16 14 14
25 26 26 26 26 25 24 25 31 33 34 36 36 37 36 31 31 30 58 52 54 48 52 45 50 46 68 68 62 41 30 18 42 36 35 32 29 26 22 20 15 12 11
19 17 16 17 13 15 22 27 31 33 36 33 31 28 25 36 37 39 45 62 60 55 59 52 57 52 67 72 68 49 35 32 33 30 42 38 35 32 28 24 20 16 11
13 8 8 5 3 7 12 17 20 28 32 27 23 28 25 34 35 32 35 53 61 59 61 60 64 62 61 75 71 55 38 22 33 40 46 49 41 38 35 30 26 22 18
9 6 2 2 4 3 1 5 7 15 16 14 14 21 27 26 25 30 30 34 43 49 58 66 70 70 76 83 88 62 45 27 32 36 34 54 49 43 38 35 31 28 27
Wind_Direction_500mb
173 173 174 171 164 165 159 154 159 133 142 153 157 161 159 154 135 135 131 125 127 122 118 112 101 90 77 78 79 89 87 88 84 85 81 76 73 69 67 69 63 61 67
173 174 177 170 165 179 169 173 158 145 133 160 166 166 163 160 149 140 138 132 134 130 123 114 102 96 94 86 81 85 89 89 85 84 84 79 73 70 65 67 67 68 71
168 179 179 175 182 183 174 164 166 152 146 152 167 174 172 166 149 145 143 134 133 132 126 115 113 110 96 91 88 92 90 93 91 86 85 80 75 71 70 64 64 67 72
173 183 186 189 185 188 180 185 180 177 168 163 160 170 171 166 158 153 148 145 141 147 135 127 120 109 103 91 94 93 93 95 96 93 89 88 82 77 76 76 66 67 73
180 190 189 189 190 190 182 197 195 198 190 177 172 166 157 169 160 161 155 150 149 151 143 131 122 117 99 105 101 99 98 99 99 95 90 89 89 83 81 77 75 67 71
170 176 180 188 198 198 188 199 205 212 204 191 179 158 160 173 159 156 160 158 159 156 154 143 136 132 127 116 108 103 102 102 112 102 93 87 89 92 85 81 78 72 70
155 161 178 189 200 208 200 204 219 216 199 197 188 172 172 181 171 171 164 161 169 169 166 157 150 149 131 122 116 110 105 105 122 114 98 90 88 86 89 87 84 80 74
158 168 177 192 201 208 216 217 216 214 208 203 195 183 184 185 183 175 174 180 178 184 174 165 159 150 139 129 122 110 104 112 135 130 104 98 93 84 92 97 90 86 80
165 183 201 212 209 214 214 218 218 215 209 209 207 201 188 204 200 189 186 190 186 184 177 169 164 155 155 132 118 110 121 128 142 142 125 105 101 94 92 88 94 93 91
193 201 219 217 219 219 220 214 215 214 212 219 217 209 203 206 214 205 200 195 190 186 186 181 171 166 151 133 111 82 94 123 137 140 135 116 120 97 99 100 99 96 94
207 217 217 227 229 225 232 229 220 221 222 225 227 220 212 205 208 208 200 196 190 188 186 180 173 164 157 142 111 78 100 143 132 117 118 114 115 112 109 103 98 94 93
212 221 226 222 230 233 237 237 235 230 231 233 231 230 227 215 214 212 204 197 196 190 189 184 176 169 166 153 113 93 119 147 142 124 117 118 117 111 105 100 95 92 91
218 218 221 220 228 236 238 238 239 241 239 240 240 237 231 223 217 214 205 196 192 191 189 185 182 173 167 157 115 112 148 150 130 120 121 116 110 106 103 98 96 94 91
233 221 216 220 227 236 234 235 238 241 244 248 249 244 239 232 224 218 206 198 195 198 190 188 178 176 174 162 123 111 152 159 133 128 126 117 114 109 106 103 99 96 92
226 224 220 223 235 234 235 239 241 243 247 249 251 251 240 242 233 224 215 199 194 197 198 192 182 181 180 167 151 130 136 162 137 130 123 125 117 116 113 108 103 99 95
222 223 228 234 233 239 251 245 244 248 253 250 248 249 249 245 243 219 209 199 200 206 209 203 192 183 185 180 165 155 150 161 142 132 131 126 124 122 118 109 105 100 96
222 222 230 247 250 255 257 253 253 254 258 263 260 255 247 244 242 220 209 191 211 211 216 206 198 188 192 183 174 165 156 157 146 139 136 136 134 130 125 117 108 103 99
225 226 228 236 248 256 249 247 253 256 264 265 271 260 242 241 238 216 210 220 233 242 216 206 196 193 188 186 178 169 161 164 149 147 145 147 145 137 130 121 114 108 103
231 232 235 239 246 251 251 251 255 252 253 260 262 258 254 236 237 227 231 224 233 215 218 220 196 190 186 178 174 166 165 166 155 155 154 154 155 145 139 131 122 114 107
236 240 244 248 251 252 253 248 242 241 244 254 259 263 264 246 232 233 222 223 210 223 225 226 216 191 185 172 170 164 163 161 162 159 166 167 169 158 151 145 134 121 115
241 248 254 255 254 254 251 246 242 239 247 252 252 264 258 253 243 241 221 210 218 222 227 225 224 215 190 180 168 158 159 163 172 173 172 176 173 168 161 153 143 139 127
241 250 255 260 265 261 253 248 244 244 243 244 260 255 259 253 241 236 203 207 221 220 207 211 218 207 191 174 171 153 156 169 180 185 185 184 183 177 171 164 155 146 139
235 251 263 274 272 249 237 232 232 233 237 240 249 254 245 237 220 230 220 216 226 228 217 215 208 205 190 186 187 171 151 180 183 191 192 192 192 187 185 181 174 170 161
237 257 279 288 271 232 235 241 238 239 237 239 248 241 237 232 213 229 199 216 219 224 223 225 218 226 197 191 185 194 185 196 177 189 198 198 198 198 202 200 201 200 198
226 247 287 288 226 232 267 250 232 230 236 243 249 228 220 233 240 234 222 226 225 228 228 228 221 221 200 200 202 196 190 188 202 190 195 200 202 206 211 212 215 219 226
189 192 135 104 151 33 153 165 196 226 223 237 227 225 225 228 238 241 238 229 234 235 233 231 228 222 203 202 201 204 203 212 210 209 206 204 206 211 216 220 226 231 236
Wind_Speed_850mb
23 26 27 25 27 23 20 18 12 13 13 14 18 21 17 14 12 14 15 16 18 24 24 28 29 29 29 30 31 31 32 35 38 40 42 42 41 41 45 47 46 45 49
18 25 26 27 27 26 21 19 14 11 10 14 14 16 15 14 14 15 16 18 20 24 25 23 23 27 26 25 28 30 30 32 35 36 38 40 40 42 43 42 42 48 50
18 23 26 30 29 28 21 20 13 11 8 12 15 16 15 15 15 16 16 18 21 23 22 23 23 22 19 22 26 28 31 31 32 34 37 39 38 39 42 43 46 49 53
15 19 27 29 29 26 21 20 13 10 8 11 12 15 15 18 14 15 17 20 23 22 23 23 21 17 17 25 26 30 31 30 30 32 34 36 37 38 42 45 45 50 52
17 16 26 27 27 24 21 18 14 11 10 14 11 16 15 18 15 15 18 21 22 20 20 19 19 17 17 24 22 26 25 28 33 36 38 37 37 35 40 48 51 50 51
17 15 25 24 24 23 23 22 15 12 12 15 14 13 17 14 16 19 21 21 22 18 17 16 17 17 18 20 19 22 23 24 27 35 42 41 37 34 36 42 50 50 50
18 17 22 21 20 22 23 22 15 14 15 15 17 20 17 16 18 20 20 21 19 16 16 15 15 19 19 17 17 16 15 15 20 29 31 36 36 37 33 37 43 48 49
18 18 18 19 21 21 23 21 18 17 16 17 17 20 21 17 20 21 21 18 17 15 17 16 19 19 17 18 18 14 12 11 19 27 30 32 30 28 26 27 34 40 46
18 16 18 20 19 22 23 21 20 21 20 18 18 21 23 20 21 21 20 20 17 20 22 23 23 22 17 22 17 13 11 15 18 29 29 26 22 25 24 25 28 33 39
16 18 20 19 19 21 23 22 22 22 21 20 19 19 26 25 24 23 23 21 20 24 26 27 27 24 25 19 14 10 9 13 22 29 27 23 22 23 27 36 34 38 42
18 20 21 18 18 19 21 21 23 23 24 26 24 25 29 32 29 29 25 24 24 27 27 29 31 32 26 18 14 11 7 15 25 34 29 27 28 32 33 34 34 39 43
25 26 25 20 22 22 20 23 26 27 29 30 33 31 29 35 35 32 29 28 28 30 32 34 37 34 24 15 14 9 7 18 25 35 33 28 32 33 35 35 38 39 41
18 26 26 24 22 22 21 23 27 29 31 33 35 36 35 37 38 36 36 36 35 36 38 40 43 32 23 14 9 9 12 26 30 35 33 30 33 33 34 38 39 42 43
23 23 25 24 20 19 21 26 27 30 32 35 36 39 42 42 42 44 41 38 37 39 43 44 39 33 27 18 13 11 14 25 33 34 33 33 34 35 36 38 40 42 43
27 27 26 25 22 21 21 24 28 31 33 36 39 41 42 46 48 44 42 39 38 39 42 45 44 37 31 23 17 12 13 24 36 36 35 34 35 36 35 36 39 39 41
30 32 29 25 23 22 22 24 24 25 26 32 38 42 43 49 54 51 48 38 39 38 44 50 49 42 35 29 25 19 14 25 37 40 35 34 33 34 34 35 35 37 38
38 38 36 30 29 30 30 32 30 28 28 31 34 41 45 51 56 55 51 39 36 32 46 54 51 49 42 37 30 23 17 32 38 41 39 34 31 30 31 34 32 33 33
45 44 41 38 37 37 39 41 38 38 36 35 36 35 44 56 58 62 57 57 53 56 55 66 61 57 48 44 37 28 26 30 38 38 39 36 33 31 28 30 30 29 29
46 44 43 41 40 39 42 46 48 49 48 41 38 35 40 53 62 67 51 54 43 43 42 59 66 64 61 54 41 34 29 29 38 38 36 35 31 32 29 26 27 27 26
44 43 43 41 38 41 45 51 54 53 49 44 38 38 40 44 64 67 56 50 46 50 46 47 58 51 61 58 49 39 35 33 33 35 35 31 27 25 24 23 25 23 21
42 41 41 39 39 46 50 50 53 56 49 43 40 36 39 45 52 60 53 44 46 41 51 55 58 49 68 63 60 44 36 33 32 30 29 26 25 22 19 18 19 19 18
33 32 34 35 38 37 34 36 43 39 39 35 35 32 38 42 40 41 52 34 41 42 46 45 41 52 71 68 57 53 34 29 30 30 29 28 25 22 20 18 16 14 14
25 26 26 26 26 25 24 25 31 33 34 36 36 37 36 31 31 30 58 52 54 48 52 45 50 46 68 68 62 41 30 18 42 36 35 32 29 26 22 20 15 12 11
19 17 16 17 13 15 22 27 31 33 36 33 31 28 25 36 37 39 45 62 60 55 59 52 57 52 67 72 68 49 35 32 33 30 42 38 35 32 28 24 20 16 11
13 8 8 5 3 7 12 17 20 28 32 27 23 28 25 34 35 32 35 53 61 59 61 60 64 62 61 75 71 55 38 22 33 40 46 49 41 38 35 30 26 22 18
9 6 2 2 4 3 1 5 7 15 16 14 14 21 27 26 25 30 30 34 43 49 58 66 70 70 76 83 88 62 45 27 32 36 34 54 49 43 38 35 31 28 27
Wind_Direction_850mb
173 173 174 171 164 165 159 154 159 133 142 153 157 161 159 154 135 135 131 125 127 122 118 112 101 90 77 78 79 89 87 88 84 85 81 76 73 69 67 69 63 61 67
173 174 177 170 165 179 169 173 158 145 133 160 166 166 163 160 149 140 138 132 134 130 123 114 102 96 94 86 81 85 89 89 85 84 84 79 73 70 65 67 67 68 71
168 179 179 175 182 183 174 164 166 152 146 152 167 174 172 166 149 145 143 134 133 132 126 115 113 110 96 91 88 92 90 93 91 86 85 80 75 71 70 64 64 67 72
173 183 186 189 185 188 180 185 180 177 168 163 160 170 171 166 158 153 148 145 141 147 135 127 120 109 103 91 94 93 93 95 96 93 89 88 82 77 76 76 66 67 73
180 190 189 189 190 190 182 197 195 198 190 177 172 166 157 169 160 161 155 150 149 151 143 131 122 117 99 105 101 99 98 99 99 95 90 89 89 83 81 77 75 67 71
170 176 180 188 198 198 188 199 205 212 204 191 179 158 160 173 159 156 160 158 159 156 154 143 136 132 127 116 108 103 102 102 112 102 93 87 89 92 85 81 78 72 70
155 161 178 189 200 208 200 204 219 216 199 197 188 172 172 181 171 171 164 161 169 169 166 157 150 149 131 122 116 110 105 105 122 114 98 90 88 86 89 87 84 80 74
158 168 177 192 201 208 216 217 216 214 208 203 195 183 184 185 183 175 174 180 178 184 174 165 159 150 139 129 122 110 104 112 135 130 104 98 93 84 92 97 90 86 80
165 183 201 212 209 214 214 218 218 215 209 209 207 201 188 204 200 189 186 190 186 184 177 169 164 155 155 132 118 110 121 128 142 142 125 105 101 94 92 88 94 93 91
193 201 219 217 219 219 220 214 215 214 212 219 217 209 203 206 214 205 200 195 190 186 186 181 171 166 151 133 111 82 94 123 137 140 135 116 120 97 99 100 99 96 94
207 217 217 227 229 225 232 229 220 221 222 225 227 220 212 205 208 208 200 196 190 188 186 180 173 164 157 142 111 78 100 143 132 117 118 114 115 112 109 103 98 94 93
212 221 226 222 230 233 237 237 235 230 231 233 231 230 227 215 214 212 204 197 196 190 189 184 176 169 166 153 113 93 119 147 142 124 117 118 117 111 105 100 95 92 91
218 218 221 220 228 236 238 238 239 241 239 240 240 237 231 223 217 214 205 196 192 191 189 185 182 173 167 157 115 112 148 150 130 120 121 116 110 106 103 98 96 94 91
233 221 216 220 227 236 234 235 238 241 244 248 249 244 239 232 224 218 206 198 195 198 190 188 178 176 174 162 123 111 152 159 133 128 126 117 114 109 106 103 99 96 92
226 224 220 223 235 234 235 239 241 243 247 249 251 251 240 242 233 224 215 199 194 197 198 192 182 181 180 167 151 130 136 162 137 130 123 125 117 116 113 108 103 99 95
222 223 228 234 233 239 251 245 244 248 253 250 248 249 249 245 243 219 209 199 200 206 209 203 192 183 185 180 165 155 150 161 142 132 131 126 124 122 118 109 105 100 96
222 222 230 247 250 255 257 253 253 254 258 263 260 255 247 244 242 220 209 191 211 211 216 206 198 188 192 183 174 165 156 157 146 139 136 136 134 130 125 117 108 103 99
225 226 228 236 248 256 249 247 253 256 264 265 271 260 242 241 238 216 210 220 233 242 216 206 196 193 188 186 178 169 161 164 149 147 145 147 145 137 130 121 114 108 103
231 232 235 239 246 251 251 251 255 252 253 260 262 258 254 236 237 227 231 224 233 215 218 220 196 190 186 178 174 166 165 166 155 155 154 154 155 145 139 131 122 114 107
236 240 244 248 251 252 253 248 242 241 244 254 259 263 264 246 232 233 222 223 210 223 225 226 216 191 185 172 170 164 163 161 162 159 166 167 169 158 151 145 134 121 115
241 248 254 255 254 254 251 246 242 239 247 252 252 264 258 253 243 241 221 210 218 222 227 225 224 215 190 180 168 158 159 163 172 173 172 176 173 168 161 153 143 139 127
241 250 255 260 265 261 253 248 244 244 243 244 260 255 259 253 241 236 203 207 221 220 207 211 218 207 191 174 171 153 156 169 180 185 185 184 183 177 171 164 155 146 139
235 251 263 274 272 249 237 232 232 233 237 240 249 254 245 237 220 230 220 216 226 228 217 215 208 205 190 186 187 171 151 180 183 191 192 192 192 187 185 181 174 170 161
237 257 279 288 271 232 235 241 238 239 237 239 248 241 237 232 213 229 199 216 219 224 223 225 218 226 197 191 185 194 185 196 177 189 198 198 198 198 202 200 201 200 198
226 247 287 288 226 232 267 250 232 230 236 243 249 228 220 233 240 234 222 226 225 228 228 228 221 221 200 200 202 196 190 188 202 190 195 200 202 206 211 212 215 219 226
189 192 135 104 151 33 153 165 196 226 223 237 227 225 225 228 238 241 238 229 234 235 233 231 228 222 203 202 201 204 203 212 210 209 206 204 206 211 216 220 226 231 236